Regional Weather Roundup
Issued by NWS

Home | Current Version | Previous Version | Graphics & Text | Print | Product List | Glossary On
Versions: 1 2 3 4 5 6 7 8 9 10 11 12 13 14 15 16 17 18 19 20 21 22 23 24 25 26 27 28
000
ASUS45 KCYS 262010
RWRWY

WYOMING REGIONAL WEATHER ROUNDUP
NATIONAL WEATHER SERVICE CHEYENNE WY
200 PM MDT MON SEP 26 2016

NOTE:  "FAIR" INDICATES FEW OR NO CLOUDS BELOW 12,000 FEET
WITH NO SIGNIFICANT WEATHER AND/OR OBSTRUCTIONS TO VISIBILITY.

WYZ001-262100-
YELLOWSTONE NATIONAL PARK

CITY           SKY/WX    TMP DP  RH WIND       PRES   REMARKS
LK YELLOWSTONE   N/A     55  39  54 VRB3      30.53F
W YELLOWSTONE  NOT AVBL

$$
WYZ002>013-054>058-071-098>099-262100-
NORTHERN WYOMING

CITY           SKY/WX    TMP DP  RH WIND       PRES   REMARKS
JACKSON        SUNNY     63  36  36 CALM      30.46F
CODY           FAIR      68  43  40 E6        30.35F
GREYBULL       FAIR      66  46  48 S5        30.33F
WORLAND        FAIR      68  42  38 NE6       30.33F
SHERIDAN       FAIR      71  46  40 W9        30.31F
BUFFALO        FAIR      67  41  38 SE7       30.35F
GILLETTE       FAIR      67  44  43 NW10G25   30.30F
HULETT         FAIR      66  39  37 W13G18    30.30F
NEWCASTLE      FAIR      64  37  36 NW17G23   30.30F

$$
WYZ014>020-022>026-101>103-262100-
CENTRAL WYOMING

CITY           SKY/WX    TMP DP  RH WIND       PRES   REMARKS
BIG PINEY      FAIR      65  36  34 VRB3      30.45F
PINEDALE       FAIR      64  34  32 W3        30.46F
DUBOIS         FAIR      66  36  32 SE6       30.42F
LANDER         FAIR      67  41  38 N8        30.37F
RIVERTON       FAIR      64  44  48 VRB3      30.39F
CASPER         FAIR      70  40  33 W6G16     30.35F
DOUGLAS        FAIR      70  37  29 NW13      30.34F

$$
WYZ021-027>030-104>119-262100-
SOUTHERN WYOMING

CITY           SKY/WX    TMP DP  RH WIND       PRES   REMARKS
EVANSTON       FAIR      64  34  32 N10       30.47F
FORT BRIDGER   FAIR      69  37  31 W6        30.48F
ROCK SPRINGS   FAIR      63  37  38 VRB5      30.45F
DIXON          FAIR      66  34  30 CALM      30.47F
RAWLINS        FAIR      66  35  31 SW13G18   30.45F
SARATOGA       FAIR      66  32  28 W13G21    30.45F
LARAMIE        FAIR      65  35  33 N7        30.43F
CHEYENNE       FAIR      71  33  24 NW13G21   30.36F
TORRINGTON     FAIR      73  36  25 NW14G22   30.29F
PINE BLUFFS    FAIR      72  32  23 N9        30.34F

$$




USA.gov is the U.S. government's official web portal to all federal, state and local government web resources and services.